Wind_Speed
22 24 25 26 27 27 28 28 28 30 29 28 27 27 26 25 26 26 25 25 25 24 24 23 23 23 23 23 23 24 24 23 22 22 22 22 23 23 24 24 26 27 29 30 31 32 34 36 37 38 38 38 38 37 36 36 35 35 35 35 35 35 36 36 37 39 40 40 40 40 40 40 40 40 40 40 40 40 41 41 42 42 42 43 43
23 25 25 25 25 26 26 27 28 28 28 27 27 26 26 26 26 26 27 26 25 24 24 24 24 25 25 25 25 25 24 23 23 23 23 23 24 25 25 25 26 27 29 30 32 33 35 36 38 39 39 39 38 37 36 35 35 35 36 36 36 37 37 37 39 40 41 42 42 42 41 40 40 41 41 41 41 41 42 42 43 43 44 44 44
23 24 24 25 25 25 26 26 26 26 27 27 27 27 27 27 27 27 27 26 25 25 24 25 26 26 27 27 26 25 24 24 24 24 24 25 26 26 26 26 27 28 30 31 32 34 35 37 38 39 39 39 37 36 35 35 36 36 37 37 38 39 39 40 41 42 43 43 43 43 42 41 41 40 41 41 41 42 42 43 44 44 45 45 46
22 23 23 24 24 24 25 24 25 26 27 27 27 28 27 27 26 27 27 27 25 25 26 26 28 29 29 28 26 26 26 26 26 26 26 27 27 27 27 28 29 30 31 32 33 34 36 37 39 39 39 38 37 36 36 36 36 37 38 39 40 40 41 42 42 43 43 43 43 43 43 43 42 41 41 41 41 42 42 43 44 44 45 46 46
20 21 22 23 23 23 23 24 25 27 27 27 27 27 27 27 26 27 28 28 27 26 27 28 30 31 30 28 27 27 28 28 28 28 28 29 29 29 30 31 31 32 33 34 34 35 37 39 39 39 38 38 37 37 37 37 38 39 40 41 41 42 42 42 43 43 43 43 43 43 43 43 43 42 42 41 40 41 42 42 43 43 44 45 46
18 20 21 22 22 22 23 24 25 26 26 26 26 27 27 27 28 28 29 29 28 27 28 29 31 31 31 30 29 29 30 30 30 31 31 32 32 33 33 34 34 35 36 36 37 38 39 40 39 39 38 37 37 38 38 39 40 41 41 42 43 43 42 42 42 42 43 43 43 43 43 43 43 42 42 41 40 39 40 40 41 42 43 44 46
18 20 21 22 22 22 23 23 24 24 25 25 26 27 27 28 29 29 29 29 29 29 29 31 32 33 32 32 31 32 32 32 33 33 33 33 33 34 35 35 36 37 37 37 38 40 40 40 39 38 37 37 37 38 39 40 41 43 43 44 44 44 43 43 42 42 42 42 42 43 42 42 43 43 42 42 41 40 38 38 39 40 41 43 44
20 21 22 22 22 22 22 22 23 23 24 26 27 27 28 28 29 30 30 30 30 29 30 31 33 33 33 34 34 34 34 34 34 34 34 34 34 34 35 35 37 37 38 39 40 41 41 40 39 37 37 37 37 38 39 41 43 44 44 44 44 44 44 43 43 42 42 42 42 42 42 42 42 42 41 41 42 42 40 37 37 37 38 40 41
22 23 23 23 22 22 22 23 23 24 25 27 27 28 29 29 30 31 31 30 30 30 31 32 34 35 35 36 36 35 36 36 36 36 35 35 35 35 36 37 39 40 41 41 42 43 42 41 39 38 38 38 38 39 40 42 43 44 44 44 44 44 44 43 43 42 42 41 41 41 42 42 42 41 41 41 41 42 42 40 39 38 37 37 39
23 23 24 24 24 23 23 24 25 26 26 27 28 29 30 30 30 31 31 31 31 32 32 33 35 36 36 37 37 37 37 37 37 36 36 36 36 36 38 40 41 43 43 45 45 45 43 42 40 39 39 39 39 40 42 43 44 44 44 44 44 43 43 43 42 42 41 41 40 40 40 41 41 41 41 41 41 42 42 42 41 41 40 39 38
22 23 24 24 25 25 25 26 26 26 27 28 29 30 31 31 31 31 32 32 33 33 34 35 36 37 37 37 38 38 38 37 37 36 36 37 37 38 40 41 42 43 44 46 47 46 44 43 41 40 39 39 39 41 43 44 44 44 44 44 44 44 43 43 42 41 41 40 40 40 40 40 40 40 40 41 41 41 42 42 42 42 42 42 40
22 24 25 25 26 27 27 27 26 26 27 28 28 29 31 32 32 32 33 33 34 34 35 36 37 37 38 38 38 38 38 38 37 37 37 38 38 39 41 42 42 43 45 47 47 46 45 44 43 42 41 39 40 41 43 44 44 44 44 44 43 43 43 42 42 41 40 40 40 40 40 40 40 40 40 40 41 41 41 42 42 42 42 43 42
22 23 25 27 27 28 28 28 28 27 28 28 28 29 31 32 33 34 35 35 35 35 36 37 38 38 39 40 39 39 39 39 38 38 39 39 40 41 43 43 44 45 47 48 47 46 45 44 44 43 42 41 41 42 43 44 44 43 43 43 43 43 42 42 41 41 40 40 40 40 40 40 40 40 40 40 41 41 41 42 42 42 43 42 42
21 21 23 26 27 28 29 29 29 29 29 29 30 31 32 33 35 36 37 37 37 37 37 38 39 40 40 41 40 40 40 40 40 40 40 41 42 43 44 44 45 47 48 47 46 45 45 44 44 44 43 43 43 43 44 44 43 42 42 42 41 41 41 41 41 40 40 40 40 40 40 40 40 40 40 40 40 41 41 42 42 43 43 43 43
21 21 22 24 26 28 29 30 30 30 31 31 31 32 33 34 36 37 38 38 38 38 38 39 40 41 42 42 42 42 42 41 41 42 42 42 43 44 44 45 46 48 48 47 46 45 44 44 44 44 44 44 44 44 44 43 42 42 41 41 41 41 40 40 40 39 39 39 39 39 39 39 39 40 40 40 40 41 41 42 42 43 43 43 43
22 22 23 24 26 28 29 30 30 31 32 33 33 33 34 35 36 38 39 40 40 40 40 40 41 42 43 43 43 43 43 43 43 43 43 44 44 45 45 46 48 48 47 46 45 44 44 44 44 44 45 45 45 44 43 42 42 41 41 40 40 40 40 39 39 39 39 39 39 39 38 38 38 38 38 39 39 40 41 41 42 43 44 45 45
23 23 23 24 26 28 29 30 30 31 32 33 34 34 35 36 36 38 39 41 41 41 41 42 43 44 44 44 45 45 44 44 44 44 44 45 45 45 46 47 48 48 47 46 44 44 44 44 44 45 45 45 45 44 43 42 41 40 40 39 40 40 40 39 39 39 39 39 39 38 38 38 37 37 37 38 38 39 40 41 42 42 44 45 46
25 25 24 24 25 27 29 29 30 31 32 34 35 35 36 37 37 38 39 40 41 41 42 43 45 45 45 45 46 46 45 45 45 45 45 46 45 45 46 48 49 48 46 45 44 44 44 44 44 44 45 44 44 43 42 42 41 40 39 39 39 39 39 39 39 39 39 39 39 38 37 37 37 37 37 37 38 38 39 40 41 42 43 44 46
26 27 26 24 24 26 28 30 31 32 33 34 35 36 38 38 38 39 40 40 41 42 43 44 45 45 46 46 46 46 46 46 45 46 46 45 44 45 46 48 49 47 45 44 44 43 44 44 44 44 44 43 42 41 41 41 40 40 39 39 38 38 38 38 39 39 39 39 38 38 37 36 36 36 37 37 37 38 38 39 40 41 42 43 45
28 27 26 25 24 26 28 30 32 33 34 35 36 37 38 38 39 39 40 41 41 42 42 43 44 44 45 46 46 46 46 46 46 46 46 44 44 45 46 47 48 46 45 44 44 43 44 44 44 43 43 42 41 40 40 39 39 39 39 39 38 38 38 38 38 38 38 38 37 37 36 35 35 36 36 36 37 37 38 38 39 40 41 42 44
29 28 27 26 25 26 27 30 32 33 34 36 37 38 38 39 39 40 41 42 42 41 41 42 42 44 45 46 47 47 47 46 47 47 45 44 44 45 45 46 47 46 45 44 44 43 44 43 43 43 42 41 40 39 39 38 38 38 38 38 38 38 37 37 37 37 37 36 36 36 35 35 35 35 35 35 36 36 37 37 38 40 40 41 43
30 31 30 27 26 27 27 28 31 33 34 36 37 39 40 40 40 40 41 41 41 41 41 42 43 44 45 46 47 47 47 47 47 47 45 44 45 45 45 46 46 46 45 44 44 43 43 43 43 42 41 40 39 38 38 38 37 37 37 37 37 38 37 37 37 36 36 36 35 35 34 34 34 34 34 34 35 35 36 37 38 39 40 41 42
34 34 32 30 28 28 28 29 30 31 34 35 37 39 40 40 40 40 41 41 41 42 42 43 44 45 46 47 48 47 47 48 48 47 46 46 46 45 45 46 47 46 45 44 44 43 43 43 42 41 40 39 38 38 37 37 36 36 36 36 37 37 37 37 36 35 35 35 35 34 34 33 33 33 33 33 34 35 35 36 38 39 40 40 41
36 34 33 31 30 30 30 31 31 32 33 34 36 38 39 40 40 40 40 40 41 43 44 45 45 46 47 48 48 47 47 49 48 47 47 47 46 46 46 47 47 45 45 44 43 43 43 42 41 40 39 38 37 37 36 36 36 36 36 36 36 36 36 36 36 35 34 34 34 33 33 33 33 33 33 33 33 34 35 36 37 38 39 40 41
34 33 32 30 30 30 29 30 30 31 32 33 34 36 38 39 39 39 39 40 42 44 45 47 47 47 48 48 48 47 48 49 48 47 48 47 47 47 48 48 47 45 44 43 43 43 42 42 40 39 38 37 37 36 35 35 35 35 35 35 35 35 35 35 35 34 34 34 33 33 33 33 33 33 33 33 33 34 35 36 37 38 39 40 41
30 30 29 28 28 29 30 33 34 34 34 33 33 34 36 38 37 38 38 40 42 44 46 48 49 49 49 48 48 48 48 49 48 48 47 47 48 49 49 48 46 45 44 43 43 42 42 40 39 38 37 36 36 35 35 34 34 34 34 34 34 34 34 34 33 33 33 33 33 33 33 33 33 33 33 33 33 34 35 36 37 38 39 40 41
27 27 26 27 30 33 36 38 38 37 36 35 34 34 35 36 37 37 38 39 42 44 47 49 50 50 49 48 48 48 48 49 48 47 47 48 49 50 49 47 46 44 43 42 42 42 40 39 38 37 36 35 35 34 34 34 34 34 34 34 34 33 33 33 32 32 32 32 32 32 33 33 33 33 33 33 34 34 35 37 38 39 40 41 41
26 27 28 32 35 37 38 37 36 35 34 33 33 32 33 34 35 37 38 40 41 44 47 49 51 51 50 49 48 48 48 49 48 47 47 49 50 50 48 47 45 44 43 42 42 41 39 38 37 36 35 34 34 34 33 34 34 34 35 34 34 33 32 32 31 31 32 32 32 33 33 33 33 33 33 34 34 35 36 37 38 39 41 42 42
26 29 32 35 36 37 36 34 32 31 31 31 32 32 33 34 34 35 37 39 41 43 46 49 51 51 50 50 49 49 49 48 47 47 49 50 51 50 48 47 45 43 42 42 41 40 38 37 36 35 34 34 33 33 33 33 34 34 34 34 34 33 33 32 32 32 32 32 33 33 34 33 33 33 33 34 35 35 36 38 38 40 41 42 43
29 32 34 35 36 35 34 32 31 30 31 31 33 35 36 36 37 37 37 37 39 41 45 48 50 51 51 51 50 49 48 47 47 49 50 51 50 49 48 47 44 42 42 41 41 39 37 36 35 34 33 33 33 32 33 33 33 34 34 34 34 34 33 33 32 32 32 33 33 34 34 33 33 34 34 34 35 36 37 38 39 40 42 43 43
35 37 37 36 34 32 31 31 32 31 32 33 34 36 37 39 40 39 38 38 37 39 41 45 49 50 51 51 48 47 46 47 48 50 50 50 50 49 48 46 43 42 41 41 40 38 36 35 34 34 33 33 32 32 32 33 33 33 33 34 34 34 34 34 33 33 33 33 34 34 34 34 34 34 34 35 35 36 37 38 39 41 42 43 44
39 38 37 35 33 31 30 31 32 33 35 36 37 39 41 42 41 39 39 38 37 37 37 41 46 48 49 47 45 45 46 48 49 50 50 50 50 49 47 44 42 42 41 41 39 36 35 34 34 33 33 33 32 32 32 32 32 33 33 34 35 35 35 35 34 35 34 34 35 35 35 34 34 34 35 36 36 36 37 39 40 42 43 44 44
36 34 32 31 31 30 30 32 34 35 37 38 40 42 44 45 43 40 38 37 37 37 37 39 42 45 45 43 43 45 47 49 50 49 50 50 49 48 46 43 42 41 41 40 37 36 35 34 33 33 32 32 32 32 32 32 33 33 34 35 36 36 36 36 35 35 35 35 36 35 35 35 34 35 35 36 36 37 38 40 41 43 44 44 44
33 32 32 31 31 32 33 35 38 39 42 44 46 47 46 45 43 40 39 38 37 38 38 39 41 42 42 43 45 47 48 48 49 49 49 50 49 47 44 42 42 41 40 38 36 35 34 33 33 33 33 32 31 32 33 33 33 34 35 36 37 37 37 37 37 36 36 36 36 36 36 35 34 35 35 35 36 37 39 40 42 43 44 44 44
35 36 36 34 35 36 38 41 43 45 47 49 50 48 45 43 42 41 40 39 38 39 39 40 40 41 43 44 45 46 47 48 48 48 49 49 47 45 43 42 41 40 39 38 36 35 34 33 33 33 33 32 31 32 33 34 34 35 36 37 38 38 39 39 39 38 38 38 38 37 37 36 36 36 35 35 36 38 39 41 42 44 44 44 45
40 41 41 40 39 39 40 42 43 44 45 46 45 43 41 41 41 41 41 40 40 39 39 39 40 42 43 44 45 46 47 47 48 48 48 48 46 44 42 41 41 40 38 37 35 34 33 33 34 33 32 32 31 33 34 34 35 36 37 38 39 39 40 40 40 40 39 39 39 38 38 38 38 38 36 36 37 39 41 42 43 44 44 45 45
44 44 44 44 44 44 44 44 43 42 42 42 42 41 40 40 40 40 41 41 41 40 39 39 40 41 43 44 45 46 46 47 47 47 47 46 45 43 41 40 40 38 37 36 35 34 34 33 33 33 33 32 32 33 35 36 36 37 38 39 40 40 41 41 41 40 40 40 40 39 39 40 40 39 38 38 38 40 42 44 45 46 46 47 46
45 46 47 46 46 47 47 47 46 45 44 43 42 42 41 41 41 41 41 41 41 40 40 40 41 42 43 44 45 45 46 46 46 46 46 46 44 42 40 40 39 38 37 35 35 34 34 33 33 33 33 33 32 33 35 37 38 38 39 40 41 42 42 42 42 41 41 41 41 40 40 40 41 40 39 39 40 41 44 45 46 48 49 50 48
46 47 47 47 47 47 47 48 48 47 46 45 44 43 42 41 41 41 40 40 40 40 39 40 41 42 43 44 44 44 44 44 45 46 46 45 42 41 40 39 38 37 36 35 35 34 34 33 33 33 34 34 33 33 36 38 39 39 40 41 42 43 44 43 42 42 42 42 41 40 40 40 40 41 41 41 41 42 44 45 46 48 51 51 48
48 47 46 46 47 46 47 47 46 45 45 45 45 43 41 41 41 41 40 40 39 39 39 40 41 42 43 43 43 43 43 43 44 45 45 43 41 40 39 38 37 36 36 35 35 34 34 33 34 34 34 34 34 34 36 38 39 40 41 42 43 44 44 44 43 44 44 43 42 41 40 40 40 41 42 42 42 43 44 46 47 49 51 50 47
49 48 47 47 46 46 47 46 45 44 43 42 42 42 40 39 40 40 39 39 39 39 40 41 42 42 42 41 41 42 42 43 44 45 44 42 40 39 38 37 37 36 36 35 34 34 34 34 34 35 35 35 35 36 36 38 39 40 41 43 44 45 44 44 45 46 45 44 43 42 41 41 41 42 43 43 43 43 44 46 49 51 51 50 48
49 49 48 47 47 46 46 45 44 43 41 40 39 38 37 37 37 38 37 38 39 40 40 41 41 40 40 40 40 41 42 43 43 43 41 40 39 38 37 37 36 36 35 35 34 34 35 35 35 35 35 35 36 37 38 38 39 40 41 43 44 45 44 45 47 47 46 45 43 42 42 42 42 43 44 44 45 44 44 46 48 48 49 49 49
50 50 48 48 48 47 45 44 42 40 38 37 36 35 35 35 34 34 35 37 38 39 39 39 39 39 39 39 40 41 41 42 42 41 40 39 38 37 36 36 35 35 35 34 34 34 35 36 36 35 36 36 36 38 38 38 39 40 42 43 44 44 45 46 48 48 47 46 45 44 44 44 44 44 45 46 46 46 46 46 46 45 46 46 46
50 49 49 48 48 47 45 42 39 36 34 32 32 32 32 31 30 31 33 35 37 37 38 38 38 38 39 39 40 40 41 41 40 39 38 37 36 35 35 35 35 35 35 34 34 35 36 37 36 36 35 36 37 38 38 39 39 40 41 42 43 44 45 46 47 47 47 47 47 47 47 46 46 46 46 46 46 46 45 45 44 44 45 46 46
48 47 47 46 46 45 42 39 35 32 31 30 30 29 27 26 27 30 32 34 36 37 38 38 38 38 39 39 39 40 39 39 38 38 37 35 34 34 34 34 35 35 34 34 34 35 37 37 37 36 35 35 37 38 38 38 39 41 42 43 43 44 44 45 45 46 47 47 47 48 48 49 48 48 47 47 46 45 44 43 43 43 44 45 46
47 46 45 43 42 40 37 34 32 31 30 28 26 24 23 24 27 30 32 34 36 37 37 37 37 38 38 38 39 38 38 38 37 36 35 34 33 34 33 34 34 33 33 34 34 35 37 37 37 37 36 36 37 38 38 38 39 42 43 43 43 43 43 44 45 46 46 46 47 48 49 49 48 47 46 45 45 44 43 43 42 41 42 43 44
46 44 43 42 40 37 34 33 31 30 28 25 23 23 23 25 28 30 32 34 36 36 36 36 37 37 37 37 37 37 37 36 35 34 33 32 33 33 33 33 32 32 33 34 35 36 37 37 37 37 37 38 38 37 37 38 40 42 43 42 42 42 42 43 44 45 45 46 47 48 48 48 47 45 44 43 42 41 41 41 41 40 41 42 42
44 43 42 40 38 36 34 32 31 28 26 24 24 25 26 27 30 31 33 35 35 35 36 36 36 36 36 36 36 36 35 34 33 32 31 32 32 33 33 32 31 32 33 34 35 36 36 36 37 37 38 39 38 38 38 39 41 42 42 42 42 42 42 43 43 43 44 45 46 47 46 46 45 44 43 41 40 40 40 41 40 40 40 41 41
43 42 41 40 38 35 33 32 29 27 26 25 25 26 28 29 31 32 33 35 35 35 35 35 35 35 35 35 34 34 33 32 31 30 30 31 31 32 31 30 30 31 33 34 35 36 35 36 37 38 38 40 40 39 39 40 42 42 41 42 42 42 42 43 42 42 43 44 45 44 44 43 42 42 41 40 39 40 40 40 40 40 40 40 41
42 41 39 38 37 34 32 31 29 28 27 26 27 28 29 30 31 32 34 34 35 35 35 34 34 34 33 32 31 31 31 30 30 29 29 30 30 30 30 30 29 31 33 34 35 35 35 36 37 38 39 40 41 40 40 41 42 41 42 43 43 43 43 42 41 40 41 42 42 42 41 40 40 40 39 39 38 39 39 39 39 39 39 39 40
40 40 39 37 35 34 32 30 29 29 28 28 28 28 29 30 31 32 33 34 34 34 33 32 32 31 30 29 29 29 29 29 29 28 28 28 28 29 29 29 30 31 32 33 34 34 35 36 38 39 39 40 41 41 41 41 41 41 42 43 44 44 44 42 41 41 42 42 41 40 40 40 40 40 40 39 39 39 39 39 39 40 39 39 39
Wind_Direction
268 264 264 263 262 262 261 258 255 254 254 253 251 250 248 248 250 252 254 257 258 258 257 256 256 256 256 256 256 257 259 262 265 268 272 276 280 284 287 291 292 292 291 292 292 293 294 295 297 298 298 299 298 296 294 292 291 290 290 290 290 290 290 291 292 291 290 290 289 289 288 288 288 287 286 285 284 283 282 280 279 278 277 276 275
267 268 269 269 266 264 263 260 256 255 255 255 254 252 248 247 248 251 254 257 258 257 255 255 256 256 256 255 255 257 259 261 263 267 271 276 281 285 290 294 296 296 295 294 293 294 295 296 297 298 298 298 296 294 292 291 290 290 290 290 290 290 291 292 292 291 291 291 290 289 289 289 289 288 287 287 287 286 284 283 282 281 280 279 278
270 272 272 272 271 268 266 263 260 258 256 255 254 252 248 247 247 251 256 258 259 257 255 255 256 255 255 255 256 257 258 260 262 266 272 277 282 287 291 295 297 297 296 294 294 294 295 296 297 298 297 296 295 293 291 290 290 290 290 291 291 292 293 294 293 292 292 291 291 290 290 289 287 287 288 288 288 287 286 286 285 284 283 282 281
275 273 272 273 272 271 271 269 265 261 259 258 256 255 253 251 251 253 258 261 259 257 255 254 254 255 256 256 256 256 258 260 264 268 272 278 283 287 290 293 295 296 296 295 294 294 295 297 297 297 296 294 293 291 291 290 290 290 291 291 292 293 294 294 293 293 292 291 291 291 290 289 288 287 287 287 287 287 287 287 287 286 285 285 284
276 275 274 273 273 273 272 270 265 262 263 263 260 259 258 256 254 254 257 259 258 257 256 255 255 257 257 256 256 257 261 264 267 270 274 279 285 289 291 293 296 298 299 298 297 297 298 299 298 297 295 293 292 292 291 291 290 290 291 292 292 294 294 293 293 292 292 291 291 291 290 289 288 288 288 287 287 288 287 287 288 287 287 286 286
276 276 275 273 273 272 269 266 264 264 266 267 264 262 259 257 256 256 256 258 259 259 258 257 257 259 259 258 258 261 264 267 270 273 279 285 289 291 293 296 299 301 301 300 299 300 300 299 297 295 293 291 291 291 291 291 291 291 291 292 293 293 293 292 292 291 291 291 290 290 289 289 289 288 288 287 287 287 287 288 289 289 288 288 287
279 279 277 274 272 270 268 267 267 268 269 267 263 261 259 258 257 258 258 258 259 259 259 258 258 259 258 258 260 262 265 269 272 277 283 288 291 293 295 298 300 301 300 299 299 300 299 297 295 292 290 289 289 289 290 290 291 292 293 293 294 294 293 292 291 290 290 290 290 289 289 288 288 288 287 287 286 285 285 286 287 288 289 288 288
285 286 283 279 275 272 270 269 268 268 266 263 262 261 261 259 259 259 259 258 258 259 259 258 259 260 259 259 260 263 266 270 274 280 285 288 291 294 296 298 299 299 298 298 299 300 298 296 293 291 289 288 288 289 290 290 291 293 294 294 294 294 293 292 292 291 290 290 289 289 288 287 287 286 286 286 286 284 284 285 286 287 288 288 289
287 290 288 284 280 277 275 272 268 265 262 261 261 261 260 259 259 259 258 258 258 258 259 259 260 262 262 262 264 266 268 272 276 282 285 289 292 295 297 298 299 299 299 300 300 300 299 296 294 292 290 290 290 290 290 291 292 293 293 293 293 293 292 292 291 291 290 289 289 288 287 287 286 286 286 286 286 286 286 286 286 286 286 287 288
287 289 288 283 279 278 276 272 269 265 263 262 261 260 259 259 259 259 259 259 259 258 259 260 261 263 264 265 267 268 270 274 278 283 287 290 293 296 299 300 300 300 301 301 301 300 298 295 293 292 291 290 291 291 292 292 293 293 293 293 292 291 291 291 290 289 289 288 288 287 286 287 287 287 287 287 287 287 287 287 288 288 287 287 288
286 287 285 282 278 275 273 273 273 272 269 266 264 262 261 261 261 260 260 258 258 259 259 260 261 263 265 266 268 270 272 276 280 285 288 292 294 297 298 299 299 299 299 300 300 299 297 294 292 290 289 290 290 291 291 292 292 292 292 292 291 291 290 290 290 289 289 288 287 287 286 287 287 288 288 288 288 288 288 288 289 289 288 288 289
287 287 287 285 281 276 274 273 273 273 272 271 270 268 265 264 263 262 261 260 260 261 261 262 263 265 266 267 269 271 274 277 281 285 288 291 293 295 297 297 296 296 297 298 298 297 295 294 292 290 290 290 290 291 291 291 292 292 291 291 290 290 289 289 289 289 288 288 287 287 287 287 288 288 289 289 290 290 289 289 290 290 289 289 291
290 288 287 286 283 281 278 276 273 271 270 271 271 269 267 266 265 264 264 263 263 263 263 264 265 266 267 269 271 272 274 278 281 284 287 290 292 294 295 295 294 295 297 298 297 295 294 292 291 291 290 290 291 291 291 291 292 291 291 290 290 289 289 289 288 288 288 287 287 287 287 288 288 289 289 290 291 291 291 291 291 291 290 290 291
289 283 282 283 282 280 278 276 275 272 270 269 269 270 268 266 265 265 265 265 265 264 264 265 265 266 268 269 271 273 274 277 280 283 286 288 291 293 294 293 294 296 297 296 295 293 292 291 290 290 290 291 291 291 292 291 291 290 290 289 289 288 288 288 288 288 287 286 286 286 287 287 288 289 289 290 290 291 291 291 291 291 290 290 291
288 279 278 280 279 278 276 275 275 274 273 270 269 270 269 267 266 266 266 266 266 265 264 265 266 266 267 269 271 272 273 275 278 282 285 288 291 292 292 292 294 296 296 294 292 291 290 289 289 289 289 290 291 292 291 291 290 289 288 288 287 287 287 287 287 286 286 286 285 286 286 286 287 287 288 289 289 290 290 291 290 290 290 290 290
291 285 280 277 276 275 273 273 273 274 274 272 271 271 270 269 268 267 267 267 266 266 265 265 266 266 267 268 270 270 271 274 277 281 284 288 290 291 291 293 294 295 294 292 291 290 289 288 288 288 289 291 291 292 291 290 289 288 288 288 287 287 286 286 286 285 285 285 285 285 286 286 287 287 288 289 289 289 289 290 290 290 290 290 289
296 293 287 279 274 273 272 271 272 273 276 275 274 273 271 269 267 266 266 265 265 265 266 266 267 267 267 268 268 269 270 273 277 281 284 287 289 290 292 294 295 295 293 291 290 288 288 287 288 289 290 291 291 291 291 289 289 288 288 287 287 287 286 286 286 285 285 285 285 286 286 287 288 288 289 289 289 289 289 289 289 290 290 290 290
298 297 293 283 274 273 273 272 273 275 277 277 276 275 272 269 267 266 265 264 264 264 265 266 266 266 266 266 267 267 269 273 277 281 284 287 288 290 292 294 294 293 291 290 288 287 287 287 288 289 290 290 290 290 289 289 288 287 287 286 286 286 286 286 285 285 285 285 285 286 287 288 289 289 289 289 289 289 289 289 289 289 290 290 290
299 298 295 286 274 270 269 270 271 273 275 277 277 275 272 270 268 268 267 265 263 262 262 263 264 264 265 265 266 267 270 274 277 280 284 286 287 290 293 294 293 292 290 288 287 287 287 287 288 289 289 289 288 288 287 287 286 286 285 285 284 284 284 285 285 284 285 285 286 286 287 288 289 289 289 289 289 289 289 289 289 289 289 289 290
300 298 295 288 278 268 265 266 266 268 271 273 274 274 272 269 268 268 267 266 263 262 262 262 263 264 264 265 265 267 271 274 276 281 283 285 287 290 293 294 293 291 289 288 287 286 287 287 288 288 288 287 286 285 285 284 284 284 284 284 284 283 284 284 283 284 284 285 286 286 287 287 288 288 288 288 288 288 288 288 288 288 288 289 289
300 298 296 291 285 276 269 264 263 264 266 268 270 272 271 269 268 268 267 266 264 263 263 264 265 265 265 265 266 268 271 273 277 281 282 283 286 290 293 294 293 290 288 287 286 286 286 287 288 287 287 286 284 283 283 283 283 283 283 283 283 284 283 283 283 283 284 285 286 286 287 288 288 288 288 288 288 288 288 288 288 287 288 288 289
299 298 296 293 291 286 279 272 268 265 264 265 267 268 269 268 268 268 267 266 265 264 264 265 265 265 265 266 267 270 271 274 279 281 280 281 286 290 294 294 292 290 288 286 286 286 286 287 287 287 286 284 283 282 282 282 282 282 283 283 283 284 283 283 283 284 285 286 286 287 288 288 288 288 287 287 287 287 287 287 287 287 287 287 288
298 298 296 295 294 292 289 285 280 275 271 269 267 266 266 267 267 267 268 267 266 265 264 264 265 265 266 267 269 270 272 276 280 279 278 280 285 290 293 293 292 289 286 285 285 286 286 287 286 285 284 283 282 282 282 282 282 282 282 282 283 283 283 283 284 284 285 286 286 287 287 287 287 287 286 286 286 286 287 286 287 287 287 288 288
295 296 296 297 297 298 296 293 290 286 282 279 274 270 266 265 267 267 268 268 267 265 263 263 264 265 266 268 269 270 274 279 280 277 277 281 286 290 292 292 292 289 285 284 285 285 286 286 285 284 283 281 281 281 281 281 281 281 281 282 282 282 283 284 285 285 286 286 286 287 287 287 286 286 286 286 286 286 286 286 286 287 287 288 288
294 295 297 298 299 302 301 299 297 294 291 287 282 276 268 265 266 267 268 269 268 266 264 263 263 264 266 267 268 271 277 280 277 275 277 281 286 290 291 293 292 288 284 284 285 285 285 285 284 283 281 280 280 280 280 280 280 281 281 282 282 282 283 284 284 285 286 286 286 286 286 285 285 285 285 285 285 285 285 285 286 286 286 286 286
295 295 296 298 302 306 307 305 303 299 296 292 287 281 272 266 266 268 269 270 269 267 265 263 263 264 264 266 268 273 279 279 275 274 278 282 286 289 291 293 291 285 283 283 284 284 284 284 282 281 280 279 279 279 280 280 281 281 281 281 281 281 281 282 282 283 283 284 285 285 284 284 284 285 285 285 285 286 286 286 286 286 286 286 286
295 294 295 300 306 311 311 309 304 300 296 292 287 281 274 268 266 268 270 271 270 269 266 264 263 263 263 265 270 276 279 277 273 275 279 283 286 289 292 292 289 284 282 283 283 283 283 282 281 279 279 279 279 280 280 281 281 281 281 280 279 279 279 280 281 281 282 282 283 283 283 283 284 285 285 286 286 287 287 287 287 288 288 288 288
298 300 303 307 312 313 312 309 303 298 293 289 286 283 278 273 269 268 269 270 271 270 268 266 264 263 263 266 273 278 278 274 272 276 281 283 286 290 292 291 287 283 282 282 282 282 282 281 279 278 278 278 279 279 280 280 280 280 280 279 279 279 279 279 280 280 281 282 283 283 283 283 284 285 285 286 287 287 287 287 288 288 288 288 289
301 306 311 314 315 313 310 305 299 294 290 288 287 286 285 281 276 273 271 270 270 270 269 267 265 263 264 269 276 278 274 271 273 277 281 284 287 290 292 290 286 282 281 282 281 281 280 279 278 277 277 277 277 278 278 279 279 279 279 279 279 280 279 280 280 281 281 282 282 282 282 283 284 284 285 285 285 285 286 286 287 286 287 287 288
300 306 312 315 313 310 306 301 296 292 289 288 288 289 288 284 280 276 274 271 270 269 269 268 267 265 266 272 276 274 270 270 275 279 283 286 289 291 291 289 284 281 281 281 280 280 279 278 277 276 276 276 276 276 277 277 277 277 278 278 279 279 280 280 281 281 282 282 281 282 282 283 283 283 284 284 284 284 284 285 285 285 286 286 287
304 309 312 310 307 302 298 295 292 290 290 290 291 292 291 289 284 278 275 272 270 269 269 268 267 266 269 273 272 268 268 272 277 281 284 287 289 291 290 286 281 280 280 279 279 278 277 276 276 275 275 275 275 275 275 276 276 276 276 277 277 278 279 280 281 281 281 281 281 282 282 283 283 283 283 283 283 284 284 284 285 285 286 286 287
310 312 310 306 301 295 290 287 286 287 288 290 293 292 293 294 290 281 275 272 269 268 268 267 266 267 269 269 266 266 270 275 279 282 285 287 289 290 288 283 279 278 278 278 278 277 276 274 274 274 274 274 275 275 275 275 275 275 276 276 277 277 279 280 280 281 282 282 282 282 283 283 283 283 283 283 284 284 284 284 284 285 285 286 288
311 310 307 303 296 288 284 282 282 284 285 288 290 291 292 295 291 282 276 273 270 269 267 265 264 264 265 265 266 269 274 277 280 283 285 287 289 288 284 280 277 277 277 277 277 275 274 273 272 272 272 273 274 274 274 274 274 274 275 276 277 278 279 279 280 281 281 281 282 282 283 283 283 283 283 284 284 285 285 285 285 285 286 287 288
308 306 302 296 289 284 282 282 283 283 285 286 288 289 291 292 289 282 277 274 271 269 267 265 264 263 264 266 269 273 276 278 281 284 286 288 288 285 281 277 276 276 276 276 275 273 273 272 271 271 271 272 273 273 272 272 272 273 273 275 276 278 279 280 280 280 280 280 280 280 280 280 279 279 279 280 281 282 283 283 284 284 286 287 287
304 303 301 297 292 288 284 283 283 284 285 286 287 289 290 288 286 282 277 274 271 269 267 266 265 265 267 270 272 275 278 280 283 285 287 287 285 282 278 275 275 275 275 274 273 272 271 270 270 270 271 271 272 271 271 271 271 272 273 274 275 277 279 280 281 281 282 281 281 281 281 280 279 278 278 278 279 280 280 281 281 283 284 285 285
302 300 299 297 295 292 288 287 286 287 287 288 288 289 289 287 285 281 278 276 274 272 270 267 267 268 270 273 275 277 280 282 284 286 287 286 283 279 275 274 274 274 273 273 272 270 269 268 268 269 270 270 269 269 269 270 270 271 272 274 275 277 278 279 281 282 282 283 283 283 283 283 282 281 282 282 282 282 281 281 282 282 283 283 283
302 299 297 295 293 290 288 287 287 287 288 288 288 289 288 286 285 281 279 277 274 273 271 270 270 272 274 276 278 279 281 284 285 287 286 283 280 276 273 273 273 272 272 271 270 268 267 267 268 268 269 268 267 267 268 269 270 271 272 273 275 277 278 279 281 282 282 283 284 284 284 284 284 284 285 284 284 284 283 283 284 284 284 283 283
303 300 298 295 293 291 289 287 286 285 285 286 287 288 287 286 284 282 279 276 274 273 272 272 274 275 276 278 279 281 283 285 286 285 283 280 277 274 272 272 272 271 271 269 268 267 266 266 267 268 268 267 267 267 268 270 271 272 273 274 276 277 278 279 281 282 282 283 283 283 284 284 285 286 285 285 285 285 285 286 286 286 285 284 285
303 301 300 298 295 293 291 290 288 287 285 285 286 287 288 286 284 281 278 276 274 274 275 276 277 277 278 279 281 283 284 285 285 283 281 278 274 272 271 271 271 270 269 268 267 266 266 266 266 266 267 267 266 266 268 270 271 273 274 276 277 278 279 280 281 282 282 282 283 283 284 285 285 286 285 285 285 285 285 285 285 285 284 286 288
304 303 302 300 297 295 292 291 290 289 287 285 284 286 288 287 284 280 276 275 276 276 277 278 277 278 279 281 282 284 285 284 283 281 278 275 272 271 270 270 269 269 267 266 266 266 266 266 266 266 266 266 266 266 267 269 271 273 275 276 277 278 280 281 282 282 282 282 283 284 284 285 285 285 286 286 286 286 286 286 285 284 284 287 287
308 307 305 303 299 296 293 292 291 290 288 286 285 285 287 286 283 278 275 275 276 277 277 277 278 279 280 282 284 284 284 282 280 278 276 273 271 270 269 269 268 267 266 266 265 265 265 265 265 265 265 265 266 266 267 268 271 273 274 276 277 279 280 281 281 281 282 283 284 285 285 285 285 286 286 287 287 287 287 286 286 286 288 288 287
309 309 309 307 303 298 295 293 291 289 288 287 286 285 286 284 279 275 274 275 275 276 276 276 277 279 281 283 284 283 282 280 278 276 273 271 269 268 268 267 267 266 265 265 264 265 265 264 264 264 265 265 266 267 268 269 271 273 274 275 277 279 280 281 281 282 283 284 284 285 285 286 286 286 287 287 286 286 285 284 285 286 287 287 286
311 311 311 309 306 302 298 295 292 289 287 286 286 285 284 280 275 273 273 274 274 274 275 276 277 279 281 282 282 281 279 277 275 273 271 269 268 267 267 266 266 265 264 264 264 264 264 264 263 263 264 265 266 267 269 270 271 273 274 275 277 278 279 280 281 283 284 285 286 286 286 286 287 287 287 287 287 287 286 285 285 284 284 283 281
313 312 312 310 308 305 301 297 293 290 288 287 286 283 279 275 272 272 272 272 273 273 275 277 279 281 281 281 281 279 277 275 273 271 269 268 267 266 266 265 264 264 264 264 264 264 264 264 264 263 264 266 267 268 270 272 273 274 274 275 276 277 278 279 281 283 285 286 288 288 289 289 289 289 288 288 288 288 288 288 287 286 284 282 280
313 313 312 311 309 306 304 300 296 293 292 288 283 278 274 272 271 270 270 271 273 275 278 280 281 282 282 281 280 278 276 273 271 269 268 268 267 266 265 264 264 264 264 264 264 264 264 265 265 265 266 267 268 269 271 273 274 274 275 275 276 277 279 280 282 284 285 287 289 290 290 290 291 291 291 291 291 291 291 290 288 287 285 283 282
313 314 314 313 310 308 306 303 300 296 291 285 278 273 271 270 269 269 271 273 276 278 280 281 282 282 283 282 280 277 274 272 270 269 269 268 267 266 265 264 264 265 265 265 265 264 265 266 267 268 268 268 269 271 272 274 275 275 275 276 277 279 280 281 282 283 285 287 288 288 288 289 289 290 290 291 292 292 291 290 289 287 284 283 281
315 316 316 316 315 312 310 307 302 294 287 280 276 273 271 270 271 272 274 276 278 280 281 282 283 283 283 282 279 276 273 271 271 270 270 268 267 266 265 265 266 267 266 266 266 265 266 267 269 269 269 270 271 272 273 274 274 274 276 277 278 279 280 280 282 284 285 286 286 286 286 287 288 289 289 290 290 289 288 287 286 285 282 280 279
316 317 318 318 317 315 312 307 300 292 286 281 279 277 275 275 276 276 277 278 280 281 282 283 284 284 284 281 278 274 273 272 271 271 269 268 267 266 267 268 268 268 268 267 266 267 268 269 270 270 271 272 273 274 275 275 275 276 277 278 279 279 280 281 283 284 284 284 284 285 286 288 290 290 290 290 289 288 287 286 285 283 281 279 277
316 318 318 318 316 313 310 305 299 294 290 286 284 283 281 280 280 280 281 281 282 283 285 286 286 286 284 280 277 274 273 273 272 271 269 268 268 268 269 270 269 268 268 267 267 269 270 270 271 272 273 274 275 276 276 277 277 279 280 280 281 282 283 284 284 284 283 283 284 285 287 288 288 288 288 287 286 285 285 285 285 284 282 280 278
316 317 318 317 314 310 306 303 300 297 294 291 290 288 286 285 285 284 284 284 285 287 288 289 288 286 283 279 277 275 274 274 272 271 270 269 269 270 271 271 269 268 268 268 269 270 271 272 273 274 275 276 278 279 280 281 282 283 284 284 285 286 286 285 284 282 281 281 283 284 284 284 283 283 283 284 284 284 284 283 283 283 282 280 278
316 318 318 317 313 309 305 302 300 298 296 294 292 291 289 288 287 286 287 288 289 290 290 290 288 286 283 280 278 276 274 274 273 273 272 271 271 271 272 273 272 270 269 270 272 273 274 275 275 276 277 278 279 281 282 283 284 285 286 287 288 288 288 288 287 286 286 287 288 288 287 287 287 288 289 290 290 290 289 288 287 286 285 283 280
Height
3082 3082 3081 3081 3081 3081 3081 3081 3081 3081 3081 3082 3083 3084 3085 3086 3086 3087 3088 3089 3089 3090 3090 3090 3090 3090 3091 3091 3091 3091 3091 3091 3091 3092 3092 3092 3092 3092 3093 3093 3092 3092 3091 3090 3089 3088 3087 3086 3085 3084 3083 3083 3082 3081 3081 3080 3079 3078 3077 3077 3077 3076 3076 3075 3074 3073 3072 3072 3072 3072 3072 3072 3071 3071 3070 3070 3070 3070 3069 3069 3069 3069 3069 3070 3070
3078 3077 3077 3077 3077 3077 3077 3077 3077 3077 3078 3078 3079 3081 3082 3082 3083 3084 3084 3085 3086 3086 3087 3086 3087 3087 3087 3087 3087 3087 3088 3088 3088 3088 3088 3089 3089 3089 3089 3088 3088 3088 3087 3086 3085 3084 3083 3082 3081 3079 3079 3078 3077 3077 3076 3075 3074 3074 3073 3072 3072 3071 3071 3071 3070 3068 3067 3067 3066 3066 3066 3067 3066 3065 3064 3064 3064 3063 3063 3062 3062 3062 3062 3063 3063
3074 3074 3074 3073 3074 3074 3073 3073 3074 3074 3075 3075 3075 3076 3077 3078 3080 3080 3081 3081 3082 3083 3083 3083 3083 3083 3083 3083 3084 3084 3084 3085 3085 3085 3085 3085 3085 3085 3085 3084 3084 3083 3083 3082 3081 3080 3079 3077 3076 3075 3074 3073 3072 3072 3071 3071 3070 3069 3068 3067 3067 3066 3066 3066 3064 3063 3062 3061 3060 3060 3060 3060 3060 3060 3059 3059 3058 3057 3057 3056 3055 3055 3055 3055 3055
3070 3070 3070 3070 3070 3070 3070 3070 3071 3071 3071 3071 3072 3072 3073 3075 3076 3077 3077 3078 3079 3079 3079 3080 3079 3079 3079 3080 3080 3080 3081 3081 3081 3082 3082 3081 3081 3081 3081 3080 3080 3079 3078 3078 3077 3076 3074 3073 3071 3070 3069 3068 3067 3066 3066 3066 3065 3064 3063 3062 3062 3061 3061 3060 3058 3057 3056 3055 3055 3054 3054 3053 3054 3054 3054 3054 3053 3052 3052 3050 3049 3049 3048 3048 3048
3067 3067 3067 3067 3067 3067 3067 3067 3067 3067 3067 3068 3069 3069 3070 3071 3073 3074 3074 3074 3074 3075 3076 3076 3075 3075 3075 3076 3076 3076 3076 3077 3077 3077 3077 3077 3077 3077 3076 3076 3075 3074 3073 3072 3071 3070 3069 3068 3066 3065 3064 3062 3062 3061 3061 3060 3060 3059 3058 3057 3057 3056 3056 3054 3053 3052 3050 3050 3049 3048 3048 3047 3047 3048 3048 3048 3048 3046 3046 3045 3044 3043 3042 3042 3042
3064 3064 3064 3063 3064 3064 3064 3064 3064 3064 3064 3065 3066 3066 3067 3067 3068 3069 3070 3070 3070 3071 3072 3071 3071 3071 3072 3072 3072 3072 3072 3072 3073 3073 3073 3072 3072 3071 3070 3070 3069 3069 3068 3067 3066 3065 3064 3062 3061 3060 3059 3058 3057 3056 3055 3054 3054 3053 3052 3051 3051 3051 3050 3049 3047 3046 3045 3044 3044 3043 3042 3041 3041 3041 3041 3041 3042 3042 3041 3040 3038 3037 3037 3036 3035
3061 3061 3061 3060 3060 3060 3060 3060 3061 3061 3062 3062 3062 3062 3063 3063 3064 3064 3066 3066 3067 3067 3067 3067 3067 3068 3068 3068 3068 3068 3068 3068 3068 3068 3068 3067 3066 3066 3065 3064 3063 3063 3062 3062 3061 3060 3059 3058 3057 3056 3055 3054 3053 3052 3050 3049 3048 3047 3046 3045 3044 3044 3043 3043 3041 3041 3040 3039 3038 3037 3036 3036 3035 3035 3035 3035 3035 3036 3037 3036 3034 3033 3032 3031 3030
3058 3058 3057 3057 3057 3057 3057 3057 3058 3058 3059 3058 3058 3059 3059 3060 3060 3060 3061 3062 3063 3063 3063 3063 3063 3064 3064 3064 3064 3064 3065 3064 3063 3063 3063 3062 3062 3061 3060 3059 3058 3058 3057 3057 3056 3055 3053 3052 3051 3051 3050 3049 3048 3047 3046 3044 3042 3041 3040 3039 3038 3037 3036 3036 3035 3034 3034 3033 3032 3031 3030 3030 3029 3029 3029 3029 3028 3029 3031 3031 3030 3029 3028 3026 3025
3056 3055 3055 3054 3054 3054 3054 3054 3054 3055 3055 3054 3055 3055 3055 3056 3056 3056 3056 3057 3058 3059 3059 3059 3059 3059 3059 3060 3060 3060 3060 3060 3059 3059 3058 3057 3057 3056 3055 3054 3053 3052 3052 3051 3050 3048 3047 3046 3045 3045 3044 3044 3043 3042 3040 3039 3037 3036 3035 3034 3032 3031 3031 3030 3029 3028 3028 3027 3026 3026 3025 3024 3024 3023 3023 3023 3023 3022 3023 3024 3024 3024 3024 3022 3021
3053 3053 3052 3051 3051 3051 3051 3050 3050 3051 3051 3051 3051 3051 3051 3051 3052 3052 3052 3053 3054 3054 3055 3055 3055 3055 3055 3055 3055 3055 3055 3055 3054 3054 3053 3052 3052 3051 3049 3048 3047 3046 3044 3043 3043 3042 3041 3041 3040 3040 3039 3038 3037 3036 3034 3033 3031 3030 3029 3028 3027 3026 3025 3024 3024 3023 3022 3022 3021 3020 3019 3019 3018 3018 3017 3017 3017 3016 3016 3017 3017 3017 3017 3017 3016
3050 3049 3048 3048 3048 3047 3047 3047 3047 3047 3047 3047 3047 3047 3047 3047 3048 3048 3048 3049 3049 3050 3050 3051 3051 3050 3051 3051 3051 3050 3050 3050 3049 3048 3048 3047 3046 3045 3044 3043 3042 3041 3039 3038 3037 3036 3035 3035 3035 3035 3034 3034 3033 3030 3029 3027 3026 3025 3024 3023 3021 3020 3019 3018 3018 3017 3016 3016 3015 3015 3014 3013 3013 3012 3011 3011 3011 3010 3010 3010 3010 3010 3010 3010 3010
3046 3045 3044 3044 3043 3043 3044 3044 3044 3044 3043 3043 3043 3043 3043 3043 3044 3044 3044 3044 3045 3045 3045 3046 3046 3046 3046 3046 3046 3046 3045 3045 3044 3044 3043 3042 3042 3041 3040 3039 3038 3037 3035 3034 3032 3030 3029 3029 3028 3028 3028 3028 3027 3025 3023 3022 3020 3019 3018 3017 3016 3015 3014 3013 3012 3012 3011 3010 3009 3009 3008 3008 3007 3006 3006 3005 3005 3004 3004 3004 3004 3003 3003 3003 3003
3043 3042 3041 3040 3039 3039 3039 3039 3040 3040 3040 3040 3040 3039 3039 3039 3039 3039 3039 3040 3040 3041 3041 3041 3041 3041 3041 3041 3041 3041 3040 3040 3039 3039 3038 3038 3038 3037 3036 3035 3034 3032 3030 3029 3027 3025 3024 3023 3022 3022 3022 3022 3021 3020 3018 3016 3015 3013 3012 3011 3010 3009 3008 3007 3007 3006 3005 3005 3004 3003 3002 3002 3001 3001 3000 2999 2999 2998 2998 2997 2997 2996 2996 2997 2997
3040 3039 3037 3036 3035 3034 3034 3034 3034 3035 3036 3036 3035 3035 3035 3034 3034 3034 3035 3035 3036 3036 3036 3036 3036 3036 3036 3036 3035 3035 3035 3035 3034 3034 3034 3033 3033 3032 3031 3030 3028 3027 3025 3023 3022 3020 3019 3018 3017 3016 3015 3015 3014 3013 3012 3010 3009 3008 3006 3005 3004 3004 3003 3002 3001 3000 3000 2999 2998 2998 2997 2997 2996 2995 2995 2994 2993 2993 2992 2991 2991 2990 2990 2990 2990
3036 3035 3034 3033 3032 3031 3030 3029 3029 3030 3030 3030 3030 3030 3030 3030 3030 3030 3030 3030 3031 3031 3031 3031 3031 3031 3031 3030 3030 3030 3030 3030 3029 3029 3029 3028 3028 3027 3025 3024 3023 3021 3020 3018 3017 3016 3014 3013 3011 3010 3009 3008 3007 3007 3005 3004 3003 3002 3001 3000 2999 2998 2998 2997 2996 2995 2995 2994 2993 2993 2992 2992 2991 2990 2990 2989 2988 2987 2987 2986 2985 2984 2984 2984 2984
3032 3031 3030 3029 3028 3027 3026 3025 3025 3025 3025 3025 3025 3025 3025 3025 3025 3025 3025 3025 3025 3026 3026 3026 3026 3026 3025 3025 3025 3025 3025 3025 3024 3024 3024 3023 3022 3021 3020 3019 3017 3016 3014 3013 3012 3010 3009 3007 3006 3005 3003 3002 3001 3000 2999 2998 2997 2996 2995 2994 2993 2993 2992 2992 2991 2990 2990 2989 2988 2988 2987 2986 2986 2985 2984 2984 2983 2982 2981 2980 2979 2978 2978 2977 2977
3028 3027 3026 3025 3024 3023 3022 3021 3021 3021 3021 3020 3020 3020 3020 3020 3020 3020 3020 3020 3020 3020 3020 3020 3020 3020 3020 3020 3020 3020 3020 3020 3019 3019 3019 3018 3017 3016 3015 3013 3011 3010 3009 3007 3006 3004 3003 3002 3000 2998 2997 2996 2994 2993 2992 2991 2991 2990 2989 2988 2987 2987 2986 2986 2985 2984 2984 2983 2983 2982 2982 2981 2980 2979 2979 2978 2977 2977 2976 2975 2974 2973 2972 2970 2970
3024 3023 3022 3020 3019 3019 3018 3017 3017 3016 3016 3016 3016 3016 3015 3015 3015 3015 3015 3014 3015 3015 3015 3015 3015 3015 3015 3015 3015 3015 3015 3014 3014 3014 3013 3012 3011 3010 3009 3007 3006 3004 3003 3001 3000 2998 2997 2996 2994 2993 2991 2990 2988 2987 2986 2985 2984 2984 2983 2983 2982 2981 2980 2980 2979 2979 2978 2978 2977 2977 2976 2975 2975 2974 2973 2973 2972 2971 2971 2970 2968 2967 2966 2965 2963
3020 3018 3017 3016 3015 3015 3014 3013 3012 3012 3012 3011 3011 3010 3010 3010 3010 3010 3009 3009 3009 3009 3009 3009 3009 3010 3010 3010 3010 3010 3010 3009 3009 3008 3007 3006 3006 3005 3003 3002 3000 2999 2997 2995 2994 2992 2991 2990 2988 2987 2985 2984 2983 2982 2981 2980 2979 2978 2978 2977 2977 2976 2975 2975 2974 2973 2973 2972 2971 2971 2971 2970 2969 2969 2968 2968 2967 2966 2965 2964 2963 2962 2961 2960 2958
3015 3014 3013 3011 3011 3010 3009 3009 3008 3007 3007 3006 3006 3005 3005 3005 3004 3004 3004 3004 3004 3003 3004 3004 3004 3004 3004 3004 3005 3005 3004 3004 3003 3002 3001 3000 3000 2999 2998 2996 2994 2992 2991 2989 2988 2987 2985 2984 2982 2981 2980 2979 2978 2977 2976 2975 2974 2973 2972 2972 2971 2971 2970 2970 2969 2968 2967 2967 2966 2966 2965 2965 2965 2964 2963 2963 2962 2961 2960 2959 2958 2957 2956 2954 2953
3011 3009 3008 3007 3006 3005 3005 3004 3003 3003 3002 3002 3001 3001 3000 3000 2999 2999 2999 2998 2998 2998 2998 2999 2999 2999 2999 2999 2999 2999 2999 2998 2997 2996 2995 2995 2994 2993 2992 2990 2987 2985 2984 2983 2982 2981 2979 2978 2976 2975 2974 2973 2972 2971 2970 2969 2969 2968 2967 2966 2966 2965 2965 2964 2963 2963 2962 2962 2961 2960 2960 2960 2959 2959 2958 2958 2957 2956 2955 2954 2953 2952 2951 2950 2949
3005 3004 3003 3002 3001 3000 3000 2999 2998 2998 2997 2997 2996 2995 2995 2994 2994 2994 2993 2993 2993 2993 2993 2994 2994 2994 2994 2994 2994 2993 2993 2992 2991 2990 2989 2989 2988 2987 2986 2983 2981 2979 2978 2977 2976 2974 2973 2972 2971 2969 2968 2967 2966 2966 2965 2964 2963 2962 2962 2961 2960 2959 2959 2958 2958 2957 2957 2956 2955 2955 2955 2954 2954 2953 2953 2952 2952 2951 2950 2949 2948 2946 2946 2945 2944
3000 2999 2999 2998 2996 2995 2995 2994 2993 2993 2992 2991 2991 2990 2989 2989 2988 2988 2988 2987 2987 2988 2988 2988 2988 2988 2988 2988 2988 2988 2987 2986 2985 2984 2983 2982 2982 2981 2979 2977 2975 2974 2972 2971 2970 2968 2967 2966 2964 2963 2962 2961 2961 2960 2959 2959 2958 2957 2956 2956 2955 2954 2953 2952 2952 2952 2951 2951 2950 2950 2950 2950 2949 2948 2948 2947 2946 2945 2944 2943 2942 2941 2940 2940 2938
2995 2994 2993 2992 2991 2990 2989 2989 2988 2987 2986 2986 2985 2984 2983 2983 2983 2982 2982 2982 2982 2982 2982 2982 2982 2983 2983 2982 2982 2982 2981 2980 2979 2978 2977 2976 2976 2974 2972 2970 2969 2968 2966 2965 2963 2962 2961 2959 2958 2957 2956 2956 2955 2954 2954 2953 2952 2952 2951 2950 2949 2948 2947 2947 2946 2946 2946 2945 2945 2945 2945 2945 2944 2943 2943 2942 2941 2940 2939 2938 2937 2936 2935 2934 2932
2991 2989 2988 2987 2986 2985 2984 2983 2982 2981 2980 2979 2979 2978 2977 2977 2977 2976 2977 2977 2976 2976 2976 2977 2977 2977 2977 2977 2976 2975 2975 2974 2972 2971 2971 2970 2969 2968 2966 2964 2963 2962 2960 2958 2957 2956 2954 2953 2952 2951 2951 2950 2949 2949 2948 2948 2947 2946 2946 2945 2944 2943 2942 2942 2941 2941 2941 2940 2940 2940 2940 2939 2939 2938 2938 2937 2936 2935 2934 2933 2932 2931 2930 2928 2927
2986 2984 2983 2982 2981 2980 2979 2978 2977 2976 2974 2973 2973 2972 2971 2971 2971 2970 2971 2971 2970 2971 2971 2971 2971 2971 2971 2971 2970 2969 2968 2967 2966 2965 2965 2964 2963 2961 2959 2958 2957 2955 2953 2952 2951 2949 2948 2947 2946 2946 2945 2944 2944 2943 2943 2942 2941 2941 2940 2939 2939 2938 2938 2937 2937 2937 2936 2936 2936 2935 2935 2934 2934 2933 2932 2931 2930 2929 2928 2927 2926 2925 2924 2922 2921
2981 2979 2978 2977 2975 2974 2973 2972 2971 2970 2969 2968 2967 2966 2965 2965 2964 2964 2965 2965 2965 2965 2965 2965 2965 2965 2965 2964 2964 2963 2961 2960 2959 2959 2958 2957 2956 2955 2953 2952 2950 2948 2947 2946 2944 2943 2942 2941 2940 2940 2939 2938 2938 2937 2937 2936 2935 2935 2934 2934 2934 2933 2933 2933 2933 2932 2932 2932 2931 2931 2930 2929 2928 2927 2926 2925 2924 2923 2922 2921 2920 2918 2917 2915 2914
2976 2975 2974 2972 2970 2969 2967 2966 2965 2964 2963 2962 2961 2960 2960 2959 2958 2958 2958 2958 2959 2959 2959 2959 2959 2959 2959 2958 2957 2956 2954 2954 2953 2952 2952 2950 2949 2948 2947 2945 2943 2942 2940 2939 2938 2937 2936 2935 2934 2934 2933 2932 2932 2931 2931 2930 2930 2929 2929 2928 2928 2928 2928 2928 2928 2927 2927 2927 2926 2926 2925 2924 2923 2922 2921 2920 2919 2918 2916 2915 2914 2912 2910 2909 2908
2971 2970 2968 2966 2965 2963 2962 2961 2960 2959 2958 2957 2956 2955 2954 2953 2952 2952 2952 2952 2952 2953 2952 2953 2953 2953 2953 2952 2950 2949 2948 2947 2946 2946 2945 2943 2942 2941 2939 2938 2936 2935 2933 2932 2931 2931 2930 2929 2928 2928 2927 2927 2927 2926 2926 2925 2924 2924 2923 2923 2922 2922 2923 2923 2923 2922 2922 2922 2921 2921 2920 2919 2918 2917 2916 2915 2914 2913 2911 2910 2909 2907 2905 2903 2902
2966 2965 2963 2961 2960 2958 2956 2955 2954 2953 2952 2951 2951 2950 2949 2948 2947 2946 2945 2945 2945 2945 2946 2946 2946 2946 2946 2944 2943 2942 2941 2940 2940 2939 2938 2936 2935 2933 2932 2930 2929 2928 2927 2926 2925 2924 2923 2923 2922 2922 2922 2921 2921 2921 2920 2920 2919 2919 2918 2918 2917 2917 2917 2917 2917 2917 2917 2917 2916 2915 2915 2914 2913 2912 2911 2910 2909 2908 2906 2905 2903 2901 2899 2898 2896
2961 2960 2958 2957 2955 2953 2951 2950 2949 2948 2947 2945 2945 2944 2943 2942 2941 2940 2939 2938 2938 2938 2938 2939 2940 2940 2938 2937 2936 2935 2934 2934 2933 2932 2931 2929 2928 2926 2925 2923 2922 2921 2920 2919 2919 2918 2917 2916 2916 2916 2916 2916 2916 2916 2915 2915 2914 2914 2913 2913 2912 2912 2912 2912 2912 2912 2912 2912 2911 2910 2909 2908 2907 2906 2905 2904 2903 2902 2901 2899 2897 2895 2894 2892 2890
2957 2955 2953 2952 2950 2948 2946 2945 2944 2942 2941 2940 2939 2937 2937 2936 2935 2934 2932 2931 2931 2930 2931 2932 2932 2932 2931 2929 2929 2928 2928 2927 2926 2925 2924 2922 2920 2919 2918 2917 2916 2915 2914 2913 2913 2912 2911 2911 2910 2910 2910 2910 2910 2910 2909 2909 2909 2908 2908 2907 2907 2907 2907 2907 2907 2906 2907 2906 2905 2904 2903 2902 2902 2900 2899 2898 2897 2896 2895 2893 2891 2889 2887 2886 2885
2952 2950 2949 2947 2945 2943 2942 2940 2938 2937 2935 2934 2933 2931 2930 2930 2929 2927 2926 2925 2924 2924 2924 2924 2924 2924 2923 2923 2922 2922 2921 2920 2919 2918 2916 2915 2914 2912 2911 2910 2909 2908 2907 2907 2907 2906 2905 2905 2905 2905 2905 2905 2905 2904 2904 2904 2903 2903 2903 2902 2901 2901 2901 2901 2901 2901 2901 2900 2899 2898 2897 2897 2896 2895 2893 2892 2891 2890 2888 2886 2885 2883 2881 2880 2879
2947 2945 2944 2942 2940 2939 2937 2935 2933 2932 2930 2929 2927 2926 2925 2924 2922 2921 2920 2919 2918 2918 2917 2917 2916 2916 2916 2916 2916 2915 2914 2913 2912 2911 2909 2908 2907 2906 2904 2904 2903 2902 2901 2901 2900 2900 2900 2899 2899 2899 2899 2900 2900 2899 2899 2898 2898 2898 2898 2897 2896 2895 2895 2895 2896 2896 2896 2895 2894 2893 2892 2892 2891 2890 2889 2888 2886 2885 2883 2881 2878 2877 2876 2875 2874
2941 2939 2938 2936 2935 2933 2932 2930 2928 2926 2924 2922 2920 2919 2918 2917 2916 2914 2913 2912 2911 2911 2910 2910 2910 2910 2910 2910 2909 2908 2907 2906 2904 2903 2902 2901 2900 2899 2898 2897 2896 2895 2895 2895 2894 2894 2894 2894 2894 2894 2894 2894 2895 2894 2893 2893 2893 2893 2893 2892 2891 2890 2890 2889 2890 2890 2889 2888 2888 2887 2886 2885 2885 2884 2883 2882 2881 2879 2877 2875 2873 2871 2870 2869 2868
2935 2933 2931 2930 2928 2926 2925 2923 2921 2919 2917 2915 2913 2912 2911 2910 2909 2908 2907 2906 2905 2904 2904 2904 2904 2903 2903 2903 2902 2901 2899 2898 2897 2896 2895 2894 2893 2892 2891 2890 2890 2889 2889 2889 2889 2889 2889 2889 2888 2889 2889 2890 2890 2889 2888 2888 2888 2888 2887 2886 2885 2885 2884 2884 2884 2884 2883 2882 2881 2880 2879 2878 2877 2876 2876 2876 2874 2872 2870 2868 2866 2865 2864 2863 2862
2930 2928 2926 2924 2922 2920 2918 2916 2914 2913 2911 2909 2907 2905 2904 2903 2902 2901 2900 2899 2898 2898 2897 2897 2897 2897 2896 2895 2894 2893 2892 2891 2891 2889 2888 2887 2886 2885 2885 2884 2883 2883 2883 2883 2883 2883 2883 2883 2883 2883 2884 2884 2885 2884 2883 2883 2883 2883 2882 2881 2880 2879 2878 2878 2878 2878 2876 2875 2874 2874 2873 2871 2870 2870 2869 2868 2866 2864 2862 2860 2859 2858 2857 2855 2855
2924 2921 2919 2918 2915 2913 2911 2909 2907 2906 2904 2902 2900 2898 2897 2896 2895 2894 2893 2893 2892 2891 2891 2891 2891 2890 2889 2888 2887 2886 2885 2884 2884 2883 2881 2880 2879 2878 2878 2877 2877 2877 2877 2877 2877 2877 2877 2878 2878 2878 2878 2879 2880 2879 2878 2877 2877 2877 2876 2875 2874 2873 2872 2872 2872 2871 2870 2869 2868 2867 2866 2865 2864 2863 2862 2861 2859 2857 2855 2853 2851 2849 2847 2846 2848
2918 2915 2912 2910 2908 2905 2903 2901 2899 2898 2896 2895 2893 2892 2890 2889 2888 2887 2886 2886 2886 2885 2885 2885 2884 2883 2882 2881 2880 2879 2879 2878 2877 2876 2874 2873 2872 2872 2872 2871 2871 2871 2871 2871 2871 2872 2872 2872 2873 2873 2873 2874 2874 2874 2873 2872 2871 2871 2870 2869 2868 2867 2866 2866 2866 2864 2863 2862 2862 2861 2861 2859 2858 2857 2855 2854 2852 2850 2848 2846 2844 2841 2839 2839 2841
2911 2908 2905 2902 2900 2898 2895 2894 2892 2890 2889 2887 2886 2885 2883 2882 2882 2881 2880 2880 2880 2880 2879 2878 2877 2876 2875 2874 2874 2873 2872 2871 2870 2869 2867 2867 2866 2866 2866 2866 2866 2866 2866 2866 2866 2866 2867 2867 2867 2867 2868 2868 2869 2869 2868 2867 2866 2865 2864 2863 2861 2860 2860 2860 2859 2857 2856 2855 2855 2855 2854 2853 2852 2850 2848 2847 2845 2843 2841 2838 2837 2834 2832 2834 2835
2904 2901 2898 2895 2892 2890 2888 2886 2884 2882 2881 2880 2878 2877 2876 2876 2875 2874 2874 2874 2874 2873 2872 2871 2870 2870 2869 2868 2868 2867 2866 2865 2863 2862 2861 2860 2860 2860 2860 2860 2860 2860 2860 2860 2861 2861 2861 2861 2861 2862 2862 2863 2863 2863 2862 2861 2860 2860 2858 2857 2855 2854 2854 2853 2851 2850 2849 2849 2848 2848 2847 2846 2845 2843 2842 2840 2838 2837 2834 2831 2828 2826 2825 2826 2825
2897 2894 2891 2887 2884 2882 2880 2878 2876 2875 2873 2872 2871 2870 2869 2869 2868 2868 2869 2869 2868 2867 2866 2865 2865 2864 2863 2862 2862 2861 2859 2858 2856 2855 2855 2855 2854 2854 2854 2854 2854 2854 2855 2855 2855 2855 2855 2856 2856 2857 2857 2857 2857 2857 2856 2856 2855 2854 2852 2851 2849 2848 2847 2845 2843 2842 2842 2842 2842 2841 2840 2839 2838 2836 2835 2833 2831 2830 2828 2825 2822 2820 2819 2818 2816
2890 2887 2884 2880 2876 2874 2872 2870 2869 2867 2866 2865 2864 2863 2862 2862 2862 2862 2863 2862 2861 2861 2860 2859 2859 2858 2857 2856 2855 2854 2853 2851 2850 2849 2849 2849 2849 2849 2849 2849 2849 2849 2849 2849 2850 2850 2850 2850 2851 2851 2852 2852 2851 2851 2850 2850 2849 2848 2846 2845 2843 2842 2841 2838 2836 2835 2835 2834 2834 2833 2832 2832 2831 2829 2827 2825 2823 2822 2820 2818 2816 2815 2813 2811 2808
2883 2880 2877 2873 2869 2866 2864 2863 2861 2860 2859 2858 2857 2856 2856 2855 2856 2856 2856 2856 2855 2854 2854 2853 2852 2851 2851 2850 2848 2847 2846 2845 2844 2843 2843 2843 2843 2843 2843 2843 2843 2843 2844 2844 2845 2844 2844 2844 2845 2846 2846 2846 2845 2845 2844 2844 2843 2842 2840 2839 2837 2836 2834 2832 2830 2829 2828 2826 2825 2824 2823 2822 2822 2820 2819 2817 2815 2814 2812 2810 2809 2808 2805 2803 2801
2877 2874 2871 2867 2863 2860 2858 2856 2854 2853 2852 2851 2851 2850 2850 2850 2850 2850 2850 2849 2849 2848 2848 2847 2846 2845 2844 2843 2842 2841 2839 2838 2838 2837 2837 2838 2838 2838 2838 2838 2838 2838 2838 2839 2839 2839 2838 2838 2839 2840 2841 2840 2840 2839 2838 2838 2837 2835 2834 2832 2831 2830 2828 2826 2824 2822 2821 2820 2818 2816 2815 2813 2812 2811 2810 2808 2807 2805 2804 2803 2802 2800 2798 2796 2794
2871 2868 2865 2861 2858 2855 2852 2850 2849 2848 2847 2846 2845 2844 2844 2844 2844 2844 2844 2843 2843 2842 2842 2841 2840 2839 2838 2837 2836 2834 2833 2832 2831 2831 2832 2832 2832 2832 2832 2832 2833 2833 2833 2833 2833 2833 2833 2833 2834 2834 2834 2834 2833 2833 2833 2832 2830 2828 2827 2826 2825 2823 2822 2820 2818 2816 2815 2813 2811 2809 2807 2806 2805 2804 2803 2801 2800 2798 2797 2795 2794 2793 2791 2789 2787
2865 2862 2858 2855 2852 2849 2847 2845 2844 2843 2842 2841 2840 2840 2839 2839 2839 2839 2838 2838 2837 2836 2836 2835 2834 2833 2832 2831 2830 2828 2827 2826 2826 2826 2827 2827 2827 2827 2827 2827 2828 2828 2828 2828 2828 2828 2828 2828 2828 2828 2828 2828 2827 2827 2827 2826 2824 2822 2821 2820 2819 2818 2816 2814 2812 2811 2809 2806 2804 2802 2800 2799 2798 2798 2797 2795 2794 2792 2790 2788 2787 2786 2784 2782 2781
2860 2857 2854 2851 2848 2845 2843 2841 2840 2839 2838 2837 2836 2835 2835 2834 2834 2833 2833 2832 2831 2831 2830 2829 2828 2827 2826 2825 2823 2822 2821 2821 2821 2821 2822 2822 2822 2822 2822 2823 2824 2823 2823 2823 2822 2822 2823 2823 2823 2822 2822 2821 2821 2821 2821 2819 2817 2815 2815 2814 2812 2811 2809 2808 2806 2805 2802 2799 2797 2795 2793 2792 2791 2790 2789 2788 2786 2784 2783 2781 2779 2778 2776 2775 2773
2855 2852 2849 2846 2843 2841 2839 2837 2836 2835 2833 2832 2832 2831 2830 2830 2829 2828 2828 2827 2826 2825 2824 2823 2822 2821 2820 2819 2818 2817 2816 2816 2816 2817 2817 2817 2817 2817 2818 2818 2819 2818 2817 2817 2817 2817 2818 2818 2817 2816 2816 2815 2814 2815 2814 2811 2810 2809 2808 2807 2806 2804 2802 2801 2799 2797 2794 2791 2789 2788 2787 2786 2785 2783 2782 2780 2779 2777 2775 2774 2772 2771 2769 2768 2766
2850 2848 2845 2842 2840 2837 2835 2833 2832 2831 2829 2828 2827 2827 2826 2825 2824 2823 2822 2821 2820 2819 2818 2817 2816 2815 2814 2813 2812 2812 2811 2811 2811 2812 2812 2813 2813 2813 2813 2813 2814 2813 2813 2812 2812 2812 2812 2812 2811 2810 2809 2808 2807 2807 2806 2804 2803 2802 2801 2799 2797 2796 2794 2793 2792 2790 2787 2785 2784 2783 2782 2781 2779 2777 2776 2774 2772 2770 2768 2767 2766 2764 2762 2761 2759
2846 2843 2841 2838 2836 2833 2831 2829 2827 2826 2825 2824 2823 2822 2821 2820 2819 2818 2817 2816 2815 2814 2813 2811 2810 2809 2808 2808 2808 2807 2807 2806 2807 2807 2808 2808 2808 2808 2808 2809 2809 2808 2808 2808 2807 2807 2806 2805 2804 2803 2803 2802 2801 2800 2799 2797 2797 2795 2794 2791 2789 2787 2785 2784 2783 2780 2778 2776 2776 2775 2773 2772 2770 2768 2766 2765 2763 2761 2760 2759 2757 2756 2755 2753 2752